• In Uzbekistan
  • List of Countries
  • For 7 days
  • Water Temperature
  • Satellite Maps
  • Weather Map
  • Weather Widgets
  • user-avatar
    Login

    Hourly Weather Letka

    Today, 24 October, Wednesday

    Time Temperature Precipitation Wind Pressure Humidity
    00:00 +4°C° 0.1 mm 1 mps 734 mmHg 95%
    01:00 +3°C° 0.1 mm 1 mps 734 mmHg 95%
    02:00 +2°C° 0.1 mm 0 mps 734 mmHg 95%
    03:00 +2°C° 0.1 mm 0 mps 734 mmHg 96%
    04:00 +2°C° 0.1 mm 0 mps 734 mmHg 96%
    05:00 +3°C° 0.1 mm 1 mps 733 mmHg 96%
    06:00 +3°C° 0.1 mm 1 mps 733 mmHg 96%
    07:00 +3°C° 0.1 mm 1 mps 733 mmHg 94%
    08:00 +3°C° 0.1 mm 1 mps 733 mmHg 93%
    09:00 +4°C° 0.1 mm 1 mps 733 mmHg 92%
    10:00 +3°C° 0.2 mm 2 mps 733 mmHg 90%
    11:00 +4°C° 0.2 mm 2 mps 733 mmHg 88%
    12:00 +4°C° 0.2 mm 2 mps 733 mmHg 87%
    13:00 +4°C° 0.2 mm 2 mps 733 mmHg 87%
    14:00 +4°C° 0.2 mm 2 mps 733 mmHg 87%
    15:00 +4°C° 0.2 mm 2 mps 733 mmHg 87%
    16:00 +4°C° 0.3 mm 2 mps 733 mmHg 88%
    17:00 +4°C° 0.3 mm 2 mps 733 mmHg 89%
    18:00 +4°C° 0.3 mm 2 mps 733 mmHg 90%
    19:00 +4°C° 0.2 mm 2 mps 733 mmHg 90%
    20:00 +4°C° 0.2 mm 2 mps 733 mmHg 90%
    21:00 +3°C° 0.2 mm 3 mps 733 mmHg 90%
    22:00 +4°C° 0 mm 2 mps 733 mmHg 92%
    23:00 +3°C° 0 mm 2 mps 733 mmHg 93%

    Tomorrow, 25 October, Thursday

    Time Temperature Precipitation Wind Pressure Humidity
    00:00 +3°C° 0 mm 2 mps 733 mmHg 94%
    01:00 +2°C° 0.2 mm 3 mps 732 mmHg 93%
    02:00 +2°C° 0.2 mm 3 mps 732 mmHg 92%
    03:00 +1°C° 0.2 mm 4 mps 732 mmHg 91%
    04:00 +3°C° 0.5 mm 4 mps 731 mmHg 90%
    05:00 +2°C° 0.5 mm 5 mps 730 mmHg 89%
    06:00 +2°C° 0.5 mm 5 mps 729 mmHg 88%
    07:00 +3°C° 0.8 mm 5 mps 729 mmHg 88%
    08:00 +3°C° 0.8 mm 5 mps 728 mmHg 88%
    09:00 +5°C° 0.8 mm 5 mps 728 mmHg 89%
    10:00 +5°C° 0.3 mm 4 mps 728 mmHg 89%
    11:00 +5°C° 0.3 mm 4 mps 728 mmHg 90%
    12:00 +6°C° 0.3 mm 4 mps 728 mmHg 90%
    13:00 +7°C° 0.1 mm 3 mps 728 mmHg 91%
    14:00 +7°C° 0.1 mm 3 mps 728 mmHg 91%
    15:00 +7°C° 0.1 mm 2 mps 728 mmHg 92%
    16:00 +7°C° 0.1 mm 2 mps 727 mmHg 93%
    17:00 +7°C° 0.1 mm 2 mps 727 mmHg 95%
    18:00 +7°C° 0.1 mm 2 mps 727 mmHg 96%
    19:00 +7°C° 0.7 mm 2 mps 726 mmHg 96%
    20:00 +7°C° 0.7 mm 2 mps 726 mmHg 97%
    21:00 +7°C° 0.7 mm 2 mps 725 mmHg 97%
    22:00 +7°C° 1.1 mm 3 mps 724 mmHg 96%
    23:00 +7°C° 1.1 mm 4 mps 723 mmHg 94%

    Day after tomorrow, 26 October, Friday

    Time Temperature Precipitation Wind Pressure Humidity
    00:00 +8°C° 1.1 mm 5 mps 722 mmHg 93%
    01:00 +8°C° 0.5 mm 5 mps 721 mmHg 91%
    02:00 +8°C° 0.5 mm 5 mps 721 mmHg 89%
    03:00 +8°C° 0.5 mm 6 mps 720 mmHg 87%
    04:00 +7°C° 0.1 mm 6 mps 719 mmHg 82%
    05:00 +5°C° 0.1 mm 7 mps 719 mmHg 78%
    06:00 +4°C° 0.1 mm 7 mps 719 mmHg 73%
    07:00 +4°C° 0.1 mm 7 mps 719 mmHg 74%
    08:00 +4°C° 0.1 mm 7 mps 720 mmHg 74%
    09:00 +4°C° 0.1 mm 8 mps 721 mmHg 74%
    10:00 +3°C° 0.1 mm 7 mps 722 mmHg 74%
    11:00 +3°C° 0.1 mm 7 mps 723 mmHg 73%
    12:00 +3°C° 0.1 mm 7 mps 723 mmHg 72%
    13:00 +3°C° 0 mm 7 mps 724 mmHg 72%
    14:00 +2°C° 0 mm 6 mps 725 mmHg 72%
    15:00 +2°C° 0 mm 6 mps 726 mmHg 73%
    16:00 +2°C° 0.1 mm 6 mps 726 mmHg 74%
    17:00 +2°C° 0.1 mm 6 mps 727 mmHg 74%
    18:00 +1°C° 0.1 mm 5 mps 727 mmHg 75%
    19:00 +1°C° 0.1 mm 5 mps 728 mmHg 76%
    20:00 +1°C° 0.1 mm 6 mps 728 mmHg 76%
    21:00 -1°C° 0.1 mm 6 mps 728 mmHg 76%
    22:00 -1°C° 0 mm 6 mps 728 mmHg 75%
    23:00 -1°C° 0 mm 6 mps 728 mmHg 75%

    27 October, Saturday

    Time Temperature Precipitation Wind Pressure Humidity
    00:00 -1°C° 0 mm 6 mps 728 mmHg 74%
    01:00 -2°C° 0 mm 6 mps 728 mmHg 75%
    02:00 -2°C° 0 mm 6 mps 728 mmHg 76%
    03:00 -2°C° 0 mm 6 mps 728 mmHg 77%
    04:00 -2°C° 0 mm 6 mps 729 mmHg 77%
    05:00 -2°C° 0 mm 6 mps 729 mmHg 76%
    06:00 -2°C° 0 mm 6 mps 729 mmHg 76%
    07:00 -2°C° 0.1 mm 6 mps 729 mmHg 76%
    08:00 -2°C° 0.1 mm 6 mps 729 mmHg 76%
    09:00 -2°C° 0.1 mm 6 mps 730 mmHg 76%
    10:00 -1°C° 0.1 mm 6 mps 730 mmHg 76%
    11:00 -1°C° 0.1 mm 6 mps 731 mmHg 76%
    12:00 -1°C° 0.1 mm 6 mps 731 mmHg 75%
    13:00 0°C° 0.1 mm 5 mps 732 mmHg 75%
    14:00 0°C° 0.1 mm 5 mps 732 mmHg 75%
    15:00 0°C° 0.1 mm 5 mps 733 mmHg 75%
    16:00 0°C° 0 mm 5 mps 733 mmHg 76%
    17:00 0°C° 0 mm 4 mps 734 mmHg 78%
    18:00 -1°C° 0 mm 4 mps 734 mmHg 79%
    19:00 -1°C° 0 mm 4 mps 734 mmHg 80%
    20:00 0°C° 0 mm 3 mps 734 mmHg 81%
    21:00 0°C° 0 mm 3 mps 734 mmHg 82%
    22:00 +1°C° 0 mm 2 mps 734 mmHg 83%
    23:00 +1°C° 0 mm 2 mps 733 mmHg 84%

    28 October, Sunday

    Time Temperature Precipitation Wind Pressure Humidity
    00:00 +1°C° 0 mm 2 mps 733 mmHg 85%
    01:00 +1°C° 0.3 mm 2 mps 732 mmHg 87%
    02:00 +1°C° 0.3 mm 2 mps 732 mmHg 89%
    03:00 +1°C° 0.3 mm 2 mps 731 mmHg 90%
    04:00 +1°C° 0.7 mm 2 mps 731 mmHg 91%
    05:00 +1°C° 0.7 mm 2 mps 730 mmHg 92%
    06:00 0°C° 0.7 mm 3 mps 730 mmHg 93%
    07:00 0°C° 0.6 mm 3 mps 730 mmHg 93%
    08:00 0°C° 0.6 mm 3 mps 730 mmHg 92%
    09:00 0°C° 0.6 mm 3 mps 730 mmHg 92%
    10:00 -1°C° 0.2 mm 4 mps 731 mmHg 89%
    11:00 -1°C° 0.2 mm 4 mps 732 mmHg 87%
    12:00 -1°C° 0.2 mm 4 mps 733 mmHg 85%
    13:00 -1°C° 0.1 mm 4 mps 734 mmHg 84%
    14:00 -1°C° 0.1 mm 4 mps 735 mmHg 83%
    15:00 -2°C° 0.1 mm 4 mps 736 mmHg 82%
    16:00 -2°C° 0 mm 4 mps 738 mmHg 82%
    17:00 -3°C° 0 mm 4 mps 739 mmHg 81%
    18:00 -3°C° 0 mm 4 mps 740 mmHg 81%
    19:00 -3°C° 0 mm 4 mps 741 mmHg 81%
    20:00 -3°C° 0 mm 4 mps 742 mmHg 80%
    21:00 -3°C° 0 mm 4 mps 743 mmHg 80%
    22:00 -4°C° 0 mm 4 mps 744 mmHg 81%
    23:00 -4°C° 0 mm 3 mps 744 mmHg 82%

    29 October, Monday

    Time Temperature Precipitation Wind Pressure Humidity
    00:00 -4°C° 0 mm 3 mps 745 mmHg 82%
    01:00 -4°C° 0 mm 3 mps 746 mmHg 83%
    02:00 -4°C° 0 mm 3 mps 747 mmHg 84%
    03:00 -5°C° 0 mm 3 mps 748 mmHg 86%
    04:00 -5°C° 0 mm 3 mps 748 mmHg 88%
    05:00 -6°C° 0 mm 3 mps 749 mmHg 90%
    06:00 -6°C° 0 mm 3 mps 750 mmHg 92%
    07:00 -6°C° 0 mm 3 mps 750 mmHg 89%
    08:00 -5°C° 0 mm 3 mps 751 mmHg 86%
    09:00 -5°C° 0 mm 3 mps 751 mmHg 83%
    10:00 -4°C° 0 mm 3 mps 752 mmHg 78%
    11:00 -2°C° 0 mm 3 mps 752 mmHg 74%
    12:00 -1°C° 0 mm 3 mps 753 mmHg 69%
    13:00 -2°C° 0 mm 3 mps 753 mmHg 71%
    14:00 -2°C° 0 mm 2 mps 754 mmHg 72%
    15:00 -2°C° 0 mm 2 mps 754 mmHg 74%
    16:00 -3°C° 0 mm 2 mps 754 mmHg 79%
    17:00 -4°C° 0 mm 2 mps 755 mmHg 84%
    18:00 -5°C° 0 mm 2 mps 755 mmHg 88%
    19:00 -3°C° 0 mm 1 mps 755 mmHg 90%
    20:00 -3°C° 0 mm 1 mps 756 mmHg 91%
    21:00 -3°C° 0 mm 1 mps 756 mmHg 93%
    22:00 -3°C° 0 mm 1 mps 756 mmHg 93%
    23:00 -4°C° 0 mm 1 mps 757 mmHg 94%

    30 October, Tuesday

    Time Temperature Precipitation Wind Pressure Humidity
    00:00 -4°C° 0 mm 1 mps 757 mmHg 95%
    01:00 -4°C° 0 mm 1 mps 757 mmHg 94%
    02:00 -4°C° 0 mm 1 mps 758 mmHg 94%
    03:00 -4°C° 0 mm 1 mps 758 mmHg 93%
    04:00 -4°C° 0 mm 1 mps 759 mmHg 93%
    05:00 -4°C° 0 mm 1 mps 759 mmHg 93%
    06:00 -6°C° 0 mm 1 mps 759 mmHg 93%
    07:00 -4°C° 0 mm 1 mps 760 mmHg 88%
    08:00 -5°C° 0 mm 2 mps 760 mmHg 84%
    09:00 -5°C° 0 mm 2 mps 761 mmHg 79%
    10:00 -4°C° 0 mm 2 mps 761 mmHg 74%
    11:00 -3°C° 0 mm 2 mps 761 mmHg 70%
    12:00 -2°C° 0 mm 2 mps 762 mmHg 65%
    13:00 -2°C° 0 mm 2 mps 762 mmHg 68%
    14:00 -3°C° 0 mm 2 mps 763 mmHg 71%
    15:00 -1°C° 0 mm 1 mps 763 mmHg 74%
    16:00 -2°C° 0 mm 1 mps 763 mmHg 79%
    17:00 -2°C° 0 mm 1 mps 764 mmHg 84%
    18:00 -3°C° 0 mm 1 mps 764 mmHg 89%
    19:00 -3°C° 0 mm 1 mps 765 mmHg 91%
    20:00 -4°C° 0 mm 1 mps 765 mmHg 93%
    21:00 -4°C° 0 mm 1 mps 765 mmHg 95%
    22:00 -4°C° 0 mm 1 mps 766 mmHg 95%
    23:00 -4°C° 0 mm 1 mps 766 mmHg 95%
    Show more